Location: Jarosław
(50.0191°N, 22.6835°E)
Time: 07:58:01
(UTC+02:00)

ISS - Pass Details

Date: 29 March 2019
Orbit: 408 x 410 km, 51.6° (Epoch: 24 April)

Event Time Altitude Azimuth Distance (km) Brightness Sun altitude
Rises 20:06:01 0° 282° (WNW) 2,339 1.3 -20.4°
Reaches altitude 10° 20:08:07 10° 284° (WNW) 1,476 0.0 -20.7°
Enters shadow 20:11:11 67° 331° (NNW) 449 -3.5 -21.1°
